KQ7A Weather Reports


time (UTC)temp
F
wind
direction
speed
knots
gust
knots
rain 1hr
in
rain 24hr
in
rain mn
in
humidity
%
barometer
mb
20260506185141 69 56 2.6 2.6 0.00 0.00 0.00 42 1022.7
20260506184639 68 31 2.6 2.6 0.00 0.00 0.00 40 1022.7
20260506184136 68 351 3.5 4.3 0.00 0.00 0.00 40 1022.6
20260506183632 68 295 0.9 1.7 0.00 0.00 0.00 47 1022.8
20260506183128 68 296 1.7 1.7 0.00 0.00 0.00 46 1022.8
20260506182626 68 332 0.0 0.9 0.00 0.00 0.00 45 1022.9
20260506182122 68 42 2.6 4.3 0.00 0.00 0.00 45 1022.7
20260506181620 67 351 3.5 4.3 0.00 0.00 0.00 54 1022.8
20260506181118 67 41 4.3 4.3 0.00 0.00 0.00 46 1022.6
20260506180614 67 348 2.6 4.3 0.00 0.00 0.00 47 1022.7
20260506180111 66 35 1.7 1.7 0.00 0.00 0.00 48 1022.7
20260506175607 66 1 2.6 4.3 0.00 0.00 0.00 50 1022.9
20260506175103 66 357 3.5 4.3 0.00 0.00 0.00 49 1022.9
20260506174602 66 18 4.3 5.2 0.00 0.00 0.00 46 1022.8
20260506174058 66 54 1.7 2.6 0.00 0.00 0.00 52 1022.7
20260506173556 66 108 0.0 0.0 0.00 0.00 0.00 47 1022.9
20260506173052 65 139 0.9 1.7 0.00 0.00 0.00 48 1022.4
20260506172550 65 82 2.6 2.6 0.00 0.00 0.00 45 1022.6
20260506172046 65 42 0.9 1.7 0.00 0.00 0.00 46 1022.4
20260506171543 64 129 0.0 0.0 0.00 0.00 0.00 62 1022.9
20260506171040 64 111 1.7 1.7 0.00 0.00 0.00 54 1022.6
20260506170538 64 44 1.7 1.7 0.00 0.00 0.00 49 1022.4
20260506170030 64 135 1.7 1.7 0.00 0.00 0.00 54 1022.8
20260506165528 64 100 0.9 0.9 0.00 0.00 0.00 60 1022.3
20260506165024 62 109 0.0 0.0 0.00 0.00 0.00 59 1022.3
20260506164521 62 82 0.9 0.9 0.00 0.00 0.00 64 1022.4
20260506164018 62 81 1.7 2.6 0.00 0.00 0.00 64 1022.4
20260506163514 61 82 0.0 0.9 0.00 0.00 0.00 63 1022.4
20260506163010 60 78 0.9 0.9 0.00 0.00 0.00 62 1022.4
20260506162506 60 73 0.9 1.7 0.00 0.00 0.00 64 1022.4
20260506162004 59 70 0.0 0.0 0.00 0.00 0.00 67 1022.4
20260506161501 60 346 2.6 2.6 0.00 0.00 0.00 64 1022.2
20260506160958 59 77 0.0 0.0 0.00 0.00 0.00 65 1022.2
20260506160456 59 359 0.9 0.9 0.00 0.00 0.00 64 1022.3
20260506155953 59 8 2.6 2.6 0.00 0.00 0.00 67 1022.4
20260506155451 58 95 0.0 0.0 0.00 0.00 0.00 67 1022.4
20260506153623 55 75 0.0 0.0 0.00 0.00 0.00 70 1022.3
20260506153121 55 15 1.7 1.7 0.00 0.00 0.00 71 1022.3
20260506152617 55 8 1.7 1.7 0.00 0.00 0.00 69 1022.3
20260506152115 55 90 0.0 0.0 0.00 0.00 0.00 73 1022.2
20260506151613 55 14 0.9 1.7 0.00 0.00 0.00 72 1022.2
20260506151109 55 88 0.0 0.0 0.00 0.00 0.00 71 1022.4
20260506150606 55 78 0.0 0.0 0.00 0.00 0.00 71 1022.0
20260506145600 54 118 0.0 0.0 0.00 0.00 0.00 71 1022.2
20260506145057 53 76 0.0 0.0 0.00 0.00 0.00 73 1022.1
20260506144554 52 100 0.0 0.0 0.00 0.00 0.00 74 1022.2
20260506144051 52 61 0.0 0.0 0.00 0.00 0.00 74 1022.1
20260506143549 53 77 0.0 0.0 0.00 0.00 0.00 73 1022.0
20260506143047 51 129 0.0 0.0 0.00 0.00 0.00 77 1022.0
20260506142544 51 104 0.9 0.9 0.00 0.00 0.00 76 1022.1
20260506142042 51 144 0.0 0.9 0.00 0.00 0.00 76 1022.0
20260506141540 50 245 0.9 0.9 0.00 0.00 0.00 78 1021.9
20260506141038 49 168 0.0 0.0 0.00 0.00 0.00 82 1021.8
20260506140535 46 179 0.0 0.0 0.00 0.00 0.00 90 1021.6
20260506140032 45 187 0.0 0.0 0.00 0.00 0.00 92 1021.6
20260506135529 44 198 0.0 0.0 0.00 0.00 0.00 94 1021.6
20260506135025 43 198 0.0 0.0 0.00 0.00 0.00 94 1021.5
20260506134522 43 201 0.0 0.0 0.00 0.00 0.00 94 1021.3
20260506134018 43 207 0.0 0.0 0.00 0.00 0.00 94 1021.2
20260506133515 42 206 0.0 0.0 0.00 0.00 0.00 94 1021.3
20260506133012 42 206 0.0 0.0 0.00 0.00 0.00 94 1021.2
20260506132509 42 229 0.0 0.0 0.00 0.00 0.00 94 1021.4
20260506132006 41 252 0.0 0.0 0.00 0.00 0.00 94 1020.9
20260506131503 41 225 0.0 0.0 0.00 0.00 0.00 94 1020.9
20260506130954 41 218 0.0 0.0 0.00 0.00 0.00 94 1020.9
20260506130451 41 247 0.0 0.0 0.00 0.00 0.00 93 1020.9
20260506125948 41 285 0.0 0.0 0.00 0.00 0.00 92 1020.8
20260506125447 42 286 0.0 0.0 0.00 0.00 0.00 91 1020.9
20260506124944 43 279 0.0 0.9 0.00 0.00 0.00 91 1020.6
20260506124442 43 272 1.7 1.7 0.00 0.00 0.00 92 1020.4
20260506123940 43 263 0.0 0.9 0.00 0.00 0.00 93 1020.1
20260506123438 42 263 0.0 0.0 0.00 0.00 0.00 92 1020.4
20260506122935 43 263 0.0 0.0 0.00 0.00 0.00 91 1020.4
20260506122431 43 279 0.9 1.7 0.00 0.00 0.00 92 1020.0
20260506121930 43 258 0.0 0.0 0.00 0.00 0.00 91 1020.0
20260506121426 44 261 0.0 0.0 0.00 0.00 0.00 92 1019.8
20260506120923 43 260 0.9 0.9 0.00 0.00 0.00 92 1020.0
20260506120421 43 250 0.0 0.9 0.00 0.00 0.00 91 1019.6
20260506115918 44 236 0.0 0.0 0.00 0.00 0.00 90 1019.7
20260506115416 44 233 0.9 0.9 0.00 0.00 0.00 91 1019.8
20260506114914 44 204 0.0 0.0 0.00 0.00 0.00 90 1019.7
20260506114411 44 273 1.7 1.7 0.00 0.00 0.00 90 1019.6
20260506113910 44 266 0.9 0.9 0.00 0.00 0.00 90 1019.4
20260506113407 44 274 1.7 1.7 0.00 0.00 0.00 91 1019.4
20260506112903 43 275 1.7 1.7 0.00 0.00 0.00 91 1019.3
20260506112401 43 262 0.0 0.0 0.00 0.00 0.00 90 1019.4
20260506111858 43 267 0.0 0.0 0.00 0.00 0.00 90 1019.4
20260506111356 43 215 0.0 0.0 0.00 0.00 0.00 90 1019.4
20260506110853 44 285 0.9 0.9 0.00 0.00 0.00 90 1019.2
20260506110350 44 283 0.9 0.9 0.00 0.00 0.00 89 1019.2
20260506105847 43 256 0.0 0.0 0.00 0.00 0.00 92 1019.3
20260506105343 43 256 0.0 0.0 0.00 0.00 0.00 92 1019.0
20260506104841 42 257 0.0 0.0 0.00 0.00 0.00 92 1018.9
20260506104339 43 264 0.0 0.0 0.00 0.00 0.00 91 1019.0
20260506103836 43 275 1.7 1.7 0.00 0.00 0.00 91 1018.9
20260506103334 42 267 0.0 0.9 0.00 0.00 0.00 91 1018.8
20260506102831 43 269 0.9 0.9 0.00 0.00 0.00 92 1018.8
20260506102329 43 286 0.9 0.9 0.00 0.00 0.00 92 1018.9
20260506101826 42 251 0.9 0.9 0.00 0.00 0.00 92 1018.9
20260506101321 42 201 0.0 0.0 0.00 0.00 0.00 91 1018.6
20260506100820 43 290 0.0 0.0 0.00 0.00 0.00 90 1018.6
20260506100318 43 292 0.0 0.9 0.00 0.00 0.00 89 1018.4
20260506095816 44 298 1.7 1.7 0.00 0.00 0.00 88 1018.4
20260506095313 44 245 0.9 0.9 0.00 0.00 0.00 87 1018.5
20260506094809 45 262 0.0 0.9 0.00 0.00 0.00 88 1018.4
20260506094308 44 267 1.7 1.7 0.00 0.00 0.00 89 1018.2
20260506093806 44 204 0.0 0.0 0.00 0.00 0.00 88 1018.2
20260506093302 45 273 0.9 0.9 0.00 0.00 0.00 87 1018.2
20260506092801 45 270 1.7 1.7 0.00 0.00 0.00 88 1018.3
20260506092258 45 282 0.9 0.9 0.00 0.00 0.00 87 1018.4
20260506091755 45 211 0.0 0.0 0.00 0.00 0.00 88 1017.8
20260506091253 45 237 0.0 0.0 0.00 0.00 0.00 88 1018.1
20260506090751 45 258 0.0 0.9 0.00 0.00 0.00 87 1018.2
20260506090247 45 262 0.9 0.9 0.00 0.00 0.00 87 1017.8
20260506085744 45 250 0.9 0.9 0.00 0.00 0.00 87 1017.9
20260506085240 45 275 1.7 1.7 0.00 0.00 0.00 87 1017.9
20260506084737 45 269 0.9 0.9 0.00 0.00 0.00 87 1017.8
20260506084233 45 228 0.9 0.9 0.00 0.00 0.00 87 1017.6
20260506083730 46 262 0.9 1.7 0.00 0.00 0.00 85 1018.1
20260506083228 46 286 0.9 1.7 0.00 0.00 0.00 86 1018.1
20260506082725 45 262 0.0 0.0 0.00 0.00 0.00 87 1018.1
20260506082221 45 274 0.0 0.0 0.00 0.00 0.00 88 1018.1
20260506081719 45 298 0.0 0.0 0.00 0.00 0.00 88 1017.8
20260506081216 46 298 0.0 0.0 0.00 0.00 0.00 86 1017.9
20260506080714 46 298 0.0 0.0 0.00 0.00 0.00 84 1017.8
20260506080210 46 298 2.6 2.6 0.00 0.00 0.00 83 1017.7
20260506073154 47 289 0.9 1.7 0.00 0.19 0.19 84 1017.3
20260506072650 46 201 0.0 0.0 0.00 0.19 0.19 87 1017.5
20260506072148 47 205 0.0 0.0 0.00 0.19 0.19 84 1017.4
20260506071646 48 268 0.0 0.0 0.00 0.19 0.19 83 1017.0
20260506071143 48 196 0.0 0.0 0.00 0.19 0.19 83 1017.1
20260506070640 49 177 0.0 0.0 0.00 0.19 0.19 80 1017.1
20260506070137 49 270 0.0 0.0 0.00 0.19 0.19 79 1017.3
20260506062115 48 173 2.6 2.6 0.00 0.19 0.19 84 1017.5
20260506061610 49 179 2.6 2.6 0.00 0.19 0.19 82 1017.5
20260506061108 48 323 0.9 1.7 0.00 0.19 0.19 82 1017.4
20260506060606 48 224 0.0 0.0 0.00 0.19 0.19 83 1017.6
20260506051035 48 189 0.0 0.0 0.00 0.19 0.19 82 1016.0
20260506050533 48 258 0.9 0.9 0.00 0.19 0.19 81 1016.2
20260506045023 48 230 0.0 0.0 0.00 0.19 0.19 81 1016.0
20260506044521 48 237 0.9 0.9 0.00 0.19 0.19 80 1015.4
20260506044018 48 258 0.0 0.9 0.00 0.19 0.19 79 1015.9
20260506043515 49 274 1.7 1.7 0.00 0.19 0.19 79 1015.6
20260506043013 48 235 0.0 0.9 0.00 0.19 0.19 80 1015.6
20260506042512 48 241 0.9 0.9 0.00 0.19 0.19 80 1015.6
20260506042010 48 217 0.0 0.0 0.00 0.19 0.19 84 1015.5
20260506041508 49 206 0.0 0.0 0.00 0.19 0.19 84 1015.8
20260506041005 49 170 0.0 0.0 0.00 0.19 0.19 80 1015.8
20260506040502 50 260 1.7 1.7 0.00 0.19 0.19 76 1015.6
20260506035958 50 204 0.9 0.9 0.00 0.19 0.19 75 1015.8
20260506035455 50 264 1.7 1.7 0.00 0.19 0.19 76 1015.6
20260506034951 50 272 1.7 1.7 0.00 0.19 0.19 75 1015.3
20260506034449 50 254 0.9 0.9 0.00 0.19 0.19 76 1015.5
20260506033946 50 252 0.0 0.9 0.00 0.19 0.19 76 1015.2
20260506033444 50 240 0.0 0.9 0.00 0.19 0.19 77 1015.0
20260506032940 50 240 0.0 0.0 0.00 0.19 0.19 76 1015.1
20260506032437 50 261 0.9 0.9 0.00 0.19 0.19 77 1014.8
20260506031934 51 252 0.9 0.9 0.00 0.19 0.19 78 1014.7
20260506031431 50 196 0.0 0.0 0.00 0.19 0.19 80 1014.6
20260506030929 51 196 0.0 0.0 0.00 0.19 0.19 78 1014.7
20260506030427 51 207 0.0 0.0 0.00 0.19 0.19 75 1014.7
20260506025923 50 196 0.0 0.0 0.00 0.19 0.19 77 1014.6
20260506025420 51 205 0.0 0.0 0.00 0.19 0.19 76 1014.5
20260506024917 53 263 0.9 1.7 0.00 0.19 0.19 73 1014.4
20260506024414 52 264 0.0 0.0 0.00 0.19 0.19 73 1014.3
20260506023910 52 260 0.0 0.0 0.00 0.19 0.19 72 1014.3
20260506023407 52 248 0.0 0.0 0.00 0.19 0.19 75 1014.4
20260506022903 53 260 0.0 0.0 0.00 0.19 0.19 74 1014.0
20260506022401 53 233 0.0 0.0 0.00 0.19 0.19 75 1014.1
20260506021859 53 214 0.0 0.0 0.00 0.19 0.19 74 1014.1
20260506021356 54 223 0.0 0.0 0.00 0.19 0.19 72 1013.9
20260506020852 55 263 0.0 0.0 0.00 0.19 0.19 70 1014.1
20260506020351 55 223 0.0 0.0 0.00 0.19 0.19 70 1014.0
20260506015848 55 233 0.0 0.0 0.00 0.19 0.19 69 1014.1
20260506015345 55 228 0.0 0.0 0.00 0.19 0.19 67 1013.9
20260506014842 55 239 0.0 0.0 0.00 0.19 0.19 70 1013.8
20260506014338 56 211 0.0 0.0 0.00 0.19 0.19 67 1013.8
20260506013835 56 211 0.0 0.0 0.00 0.19 0.19 67 1014.0
20260506013333 57 219 0.0 0.0 0.00 0.19 0.19 69 1014.1
20260506012829 57 200 0.0 0.0 0.00 0.19 0.19 65 1013.9
20260506012326 58 208 0.0 0.0 0.00 0.19 0.19 65 1014.3
20260506011823 61 242 0.9 1.7 0.00 0.19 0.19 59 1013.9
20260506011320 65 221 0.0 0.0 0.00 0.19 0.19 53 1013.9
20260506010817 67 215 0.0 0.9 0.00 0.19 0.19 49 1014.1
20260506010315 65 207 0.0 0.0 0.00 0.19 0.19 55 1013.9
20260506005812 64 188 0.9 0.9 0.00 0.19 0.19 53 1014.1
20260506005309 64 163 0.0 0.0 0.00 0.19 0.19 46 1014.0
20260506004805 65 139 0.0 0.9 0.00 0.19 0.19 48 1014.0
20260506004303 66 81 1.7 1.7 0.00 0.19 0.19 46 1014.1
20260506003759 65 167 0.0 0.0 0.00 0.19 0.19 43 1014.3
20260506003256 66 341 0.0 0.9 0.00 0.19 0.19 43 1013.9
20260506002751 67 241 1.7 1.7 0.00 0.19 0.19 40 1014.0
20260506002247 67 76 0.9 0.9 0.00 0.19 0.19 40 1014.0
20260506001743 66 151 0.0 0.9 0.00 0.19 0.19 43 1013.9
20260506001241 66 308 0.9 1.7 0.00 0.19 0.19 40 1014.3
20260506000738 66 312 1.7 1.7 0.00 0.19 0.19 46 1014.0
20260506000235 66 216 1.7 2.6 0.00 0.19 0.19 44 1013.9
20260505235732 65 343 0.9 0.9 0.00 0.19 0.19 48 1014.1
20260505235230 65 349 1.7 1.7 0.00 0.19 0.19 43 1014.0
20260505234726 65 7 2.6 2.6 0.00 0.19 0.19 45 1014.1
20260505234224 65 46 0.9 1.7 0.00 0.19 0.19 44 1014.1
20260505233720 65 20 4.3 4.3 0.00 0.19 0.19 44 1014.0
20260505233219 65 209 2.6 5.2 0.00 0.19 0.19 46 1014.3
20260505232715 66 275 1.7 2.6 0.00 0.19 0.19 48 1014.3
20260505232213 66 342 0.9 1.7 0.00 0.19 0.19 47 1014.3
20260505231709 65 332 1.7 1.7 0.00 0.19 0.19 46 1014.1
20260505231208 64 258 0.9 1.7 0.00 0.19 0.19 45 1014.3
20260505230706 65 260 0.9 0.9 0.00 0.19 0.19 48 1014.5
20260505230202 65 44 2.6 2.6 0.00 0.19 0.19 47 1014.4
20260505225659 65 357 1.7 2.6 0.00 0.19 0.19 53 1014.7
20260505225156 64 28 3.5 5.2 0.00 0.19 0.19 50 1014.6
20260505224651 64 12 4.3 5.2 0.00 0.19 0.19 47 1014.6
20260505224149 64 7 0.9 2.6 0.00 0.19 0.19 57 1014.4
20260505223646 64 278 1.7 1.7 0.00 0.19 0.19 49 1014.5
20260505223142 64 313 1.7 2.6 0.00 0.19 0.19 49 1014.6
20260505222633 63 66 1.7 1.7 0.00 0.19 0.19 54 1014.7
20260505222129 64 63 0.9 0.9 0.00 0.19 0.19 50 1014.6
20260505221626 63 245 0.9 0.9 0.00 0.19 0.19 48 1014.7
20260505221123 62 73 2.6 2.6 0.00 0.19 0.19 54 1014.7
20260505220621 62 355 2.6 2.6 0.00 0.19 0.19 51 1014.8
20260505220118 61 25 2.6 4.3 0.00 0.19 0.19 56 1014.7
20260505215616 62 50 3.5 5.2 0.00 0.19 0.19 57 1014.6
20260505215113 62 45 1.7 1.7 0.00 0.19 0.19 56 1015.0
20260505214611 62 53 1.7 2.6 0.00 0.19 0.19 56 1015.2
20260505214108 62 0 3.5 6.1 0.00 0.19 0.19 55 1014.8
20260505213606 61 342 1.7 2.6 0.00 0.19 0.19 61 1015.0
20260505213102 61 2 3.5 4.3 0.00 0.19 0.19 55 1015.2
20260505212558 61 74 3.5 4.3 0.00 0.19 0.19 62 1015.2
20260505212056 60 129 1.7 2.6 0.00 0.19 0.19 60 1015.2
20260505211553 60 68 2.6 2.6 0.00 0.19 0.19 59 1015.3
20260505211050 59 74 1.7 2.6 0.00 0.19 0.19 68 1015.5
20260505210546 58 67 2.6 4.3 0.00 0.19 0.19 62 1015.4
20260505210044 60 97 5.2 6.1 0.00 0.19 0.19 62 1015.4
20260505205541 60 16 0.9 1.7 0.00 0.19 0.19 61 1015.3
20260505205038 59 91 0.9 0.9 0.00 0.19 0.19 71 1015.4
20260505204536 59 359 0.0 0.9 0.00 0.19 0.19 60 1015.4
20260505204033 58 12 2.6 2.6 0.00 0.19 0.19 68 1015.6
20260505203529 57 111 2.6 2.6 0.00 0.19 0.19 68 1015.6
20260505203027 57 73 2.6 5.2 0.00 0.19 0.19 67 1015.9
20260505202523 57 5 2.6 2.6 0.00 0.19 0.19 67 1015.6
20260505202018 57 345 3.5 5.2 0.00 0.19 0.19 72 1015.5
20260505201516 55 88 2.6 2.6 0.00 0.19 0.19 72 1015.8
20260505201013 56 9 0.9 1.7 0.00 0.19 0.19 75 1015.9
20260505200511 56 20 1.7 1.7 0.00 0.19 0.19 72 1015.9
20260505200008 55 292 0.9 0.9 0.00 0.19 0.19 75 1016.1
20260505195504 54 167 0.9 1.7 0.00 0.19 0.19 76 1016.0
20260505195001 54 136 0.9 1.7 0.00 0.19 0.19 75 1016.0
20260505194459 53 149 1.7 2.6 0.00 0.19 0.19 76 1015.8
20260505193958 53 111 3.5 4.3 0.00 0.19 0.19 78 1015.9
20260505193456 52 87 0.0 0.0 0.00 0.19 0.19 78 1016.0
20260505192953 51 172 0.9 1.7 0.00 0.19 0.19 79 1015.8
20260505192452 52 114 0.9 0.9 0.00 0.19 0.19 81 1015.9
20260505191949 52 99 0.9 0.9 0.00 0.19 0.19 81 1015.8
20260505191448 51 129 3.5 4.3 0.00 0.19 0.19 80 1016.0
20260505190944 51 92 0.0 0.9 0.00 0.19 0.19 80 1015.8
20260505190439 51 121 1.7 1.7 0.00 0.19 0.19 82 1015.6
20260505185935 51 173 2.6 2.6 0.00 0.19 0.19 79 1015.6
20260505185433 51 229 0.0 0.0 0.00 0.19 0.19 78 1016.0